Findlay, OH

11:04 PM EDT on September 19, 2017 (GMT -0400)
Findlay

Weather History for KFDY - February, 2015

Change the Weather History Date:

Wednesday, February 18, 2015

  Actual Average Record
Temperature  
Mean Temperature 10 °F -  
Max Temperature 15 °F 38 °F 70 °F (2017)
Min Temperature 3 °F 23 °F -5 °F (1993)
Degree Days  
Heating Degree Days 55    
Moisture  
Dew Point 4 °F    
Average Humidity 74    
Maximum Humidity 81    
Minimum Humidity 54    
Precipitation  
Precipitation 0.00 in - - ()
Sea Level Pressure  
Sea Level Pressure 29.92 in    
Wind  
Wind Speed 16 mph (West)    
Max Wind Speed 28 mph    
Max Gust Speed 34 mph    
Visibility 6 miles    
Events Snow    
Averages and records for this station are not official NWS values.
T = Trace of Precipitation, MM = Missing Value Source: NWS Daily Summary

Daily Weather History Graph

Daily Weather History Graph

Search for Another Location

Airport or City:

Trip Planner

Search our weather history database for the weather conditions in past years. The results will help you decide how hot, cold, wet, or windy it might be!

Date:

Astronomy

Feb. 18, 2015 Rise Set
Actual Time 7:25 AM EST 6:12 PM EST
Civil Twilight 6:57 AM EST 6:40 PM EST
Nautical Twilight 6:25 AM EST 7:12 PM EST
Astronomical Twilight 5:53 AM EST 7:44 PM EST
Moon 6:54 AM EST (2/18) 6:12 PM EST (2/18)
Length of Visible Light 11h 43m
Length of Day
10h 47m
Waning Crescent, 0% of the Moon is Illuminated
Feb 18
Waning Crescent
Feb 18
New
Feb 25
First Quarter
Mar 5
Full
Mar 13
Last Quarter

Hourly Weather History & Observations

Time (EST) Temp. Windchill Dew Point Humidity Pressure Visibility Wind Dir Wind Speed Gust Speed Precip Events Conditions
12:53 AM 15.1 °F 1.1 °F 7.0 °F 70% 29.89 in 10.0 mi West 12.7 mph - N/A   Mostly Cloudy
1:53 AM 12.9 °F -2.2 °F 5.0 °F 71% 29.87 in 10.0 mi WSW 13.8 mph - N/A   Clear
2:53 AM 10.0 °F -3.7 °F 3.0 °F 73% 29.84 in 10.0 mi SW 10.4 mph - N/A   Partly Cloudy
3:53 AM 8.1 °F -4.3 °F 1.9 °F 76% 29.82 in 10.0 mi SW 8.1 mph - N/A   Clear
4:53 AM 10.9 °F -1.8 °F 3.0 °F 70% 29.81 in 10.0 mi SSW 9.2 mph - N/A   Overcast
5:53 AM 12.9 °F 0.7 °F 6.1 °F 74% 29.80 in 3.0 mi SW 9.2 mph - 0.00 in Snow Light Snow
6:15 AM 12.9 °F -2.8 °F 7.0 °F 77% 29.77 in 2.0 mi WSW 15.0 mph - 0.00 in Snow Light Snow
6:41 AM 12.9 °F -1.6 °F 7.0 °F 77% 29.76 in 2.0 mi WSW 12.7 mph - 0.00 in Snow Light Snow
6:53 AM 12.0 °F -2.0 °F 7.0 °F 80% 29.80 in 2.0 mi WSW 11.5 mph - 0.00 in Snow Light Snow
7:09 AM 12.0 °F -3.4 °F 7.0 °F 80% 29.76 in 3.0 mi WSW 13.8 mph - 0.00 in Snow Light Snow
7:53 AM 12.0 °F -2.0 °F 7.0 °F 80% 29.80 in 1.5 mi WSW 11.5 mph - 0.00 in Snow Light Snow
8:03 AM 12.0 °F -3.4 °F 7.0 °F 80% 29.76 in 3.0 mi WSW 13.8 mph - 0.00 in Snow Light Snow
8:51 AM 12.2 °F -2.5 °F 6.8 °F 79% 29.77 in 4.0 mi West 12.7 mph - 0.00 in Snow Light Snow
8:53 AM 12.9 °F -0.9 °F 6.1 °F 74% 29.81 in 4.0 mi West 11.5 mph - 0.00 in Snow Light Snow
9:53 AM 12.0 °F -6.0 °F 3.9 °F 70% 29.82 in 8.0 mi West 19.6 mph - 0.00 in   Overcast
10:09 AM 12.0 °F -5.1 °F 1.9 °F 64% 29.78 in 10.0 mi West 17.3 mph 26.5 mph N/A   Scattered Clouds
10:53 AM 12.0 °F -6.0 °F 1.9 °F 64% 29.82 in 10.0 mi West 19.6 mph 25.3 mph N/A   Scattered Clouds
11:53 AM 12.9 °F -6.1 °F 1.9 °F 62% 29.84 in 10.0 mi West 23.0 mph - N/A   Clear
12:53 PM 14.0 °F -5.1 °F 1.9 °F 59% 29.84 in 10.0 mi West 24.2 mph 31.1 mph N/A   Scattered Clouds
1:53 PM 14.0 °F -3.9 °F -0.0 °F 54% 29.86 in 10.0 mi West 20.7 mph - N/A   Partly Cloudy
2:53 PM 14.0 °F -6.2 °F 1.9 °F 59% 29.89 in 9.0 mi West 27.6 mph 33.4 mph N/A   Overcast
3:21 PM 12.9 °F -7.3 °F 3.9 °F 67% 29.86 in 6.0 mi West 26.5 mph 34.5 mph 0.00 in   Overcast
3:53 PM 12.9 °F -7.6 °F 5.0 °F 71% 29.92 in 3.0 mi West 27.6 mph 34.5 mph 0.00 in Snow Light Snow
4:38 PM 12.9 °F -6.9 °F 1.9 °F 62% 29.90 in 10.0 mi West 25.3 mph 31.1 mph 0.00 in   Scattered Clouds
4:53 PM 12.9 °F -4.9 °F 1.0 °F 59% 29.95 in 10.0 mi West 19.6 mph 31.1 mph 0.00 in   Partly Cloudy
5:53 PM 10.9 °F -9.2 °F 3.9 °F 73% 29.98 in 1.5 mi West 24.2 mph 29.9 mph 0.00 in Snow Light Snow
6:03 PM 10.9 °F -8.8 °F 5.0 °F 77% 29.95 in 0.5 mi West 23.0 mph 29.9 mph 0.00 in Snow Snow
6:16 PM 10.9 °F -7.9 °F 6.1 °F 81% 29.95 in 0.2 mi West 20.7 mph 29.9 mph 0.00 in Snow Heavy Snow
6:27 PM 10.0 °F -8.6 °F 5.0 °F 80% 29.96 in 0.8 mi West 19.6 mph 29.9 mph 0.00 in Snow Light Snow
6:31 PM 10.0 °F -9.1 °F 5.0 °F 80% 29.96 in 2.0 mi West 20.7 mph - 0.00 in Snow Light Snow
6:45 PM 10.0 °F -9.1 °F 5.0 °F 80% 29.97 in 1.8 mi West 20.7 mph - 0.00 in Snow Light Snow
6:49 PM 10.4 °F -8.6 °F 5.0 °F 79% 29.97 in 3.0 mi West 20.7 mph - 0.00 in Snow Light Snow
6:53 PM 10.0 °F -9.5 °F 3.9 °F 76% 30.02 in 4.0 mi West 21.9 mph - 0.00 in Snow Blowing Snow
7:01 PM 10.0 °F -8.6 °F 3.9 °F 76% 29.98 in 8.0 mi West 19.6 mph - N/A   Scattered Clouds
7:16 PM 9.0 °F -8.5 °F 3.9 °F 80% 29.99 in 5.0 mi West 16.1 mph - 0.00 in Snow Light Snow
7:46 PM 10.0 °F -7.6 °F 5.0 °F 80% 30.01 in 2.5 mi West 17.3 mph 25.3 mph 0.00 in Snow Light Snow
7:53 PM 10.0 °F -8.1 °F 5.0 °F 80% 30.05 in 1.2 mi West 18.4 mph - 0.00 in Snow Light Snow
8:06 PM 10.0 °F -8.1 °F 5.0 °F 80% 30.02 in 0.8 mi West 18.4 mph - 0.00 in Snow Light Snow
8:22 PM 9.0 °F -9.5 °F 3.9 °F 80% 30.02 in 2.0 mi West 18.4 mph - 0.00 in Snow Light Snow
8:44 PM 8.1 °F -9.6 °F 3.0 °F 80% 30.03 in 1.8 mi West 16.1 mph - 0.00 in Snow Light Snow
8:53 PM 8.1 °F -9.6 °F 3.0 °F 80% 30.07 in 2.0 mi West 16.1 mph - 0.00 in Snow Light Snow
9:06 PM 8.1 °F -11.2 °F 1.9 °F 76% 30.04 in 4.0 mi West 19.6 mph - 0.00 in Snow Light Snow
9:21 PM 7.0 °F -10.4 °F 1.0 °F 77% 30.04 in 10.0 mi West 15.0 mph - 0.00 in   Mostly Cloudy
9:28 PM 7.0 °F -11.0 °F 1.0 °F 77% 30.05 in 10.0 mi West 16.1 mph - 0.00 in   Overcast
9:41 PM 6.1 °F -10.2 °F 1.0 °F 80% 30.05 in 10.0 mi West 12.7 mph - 0.00 in   Scattered Clouds
9:53 PM 6.1 °F -11.6 °F -0.0 °F 76% 30.10 in 10.0 mi West 15.0 mph - 0.00 in   Partly Cloudy
10:53 PM 5.0 °F -12.3 °F -2.9 °F 70% 30.12 in 10.0 mi West 13.8 mph - N/A   Partly Cloudy
11:53 PM 3.9 °F -13.7 °F -5.1 °F 66% 30.12 in 10.0 mi West 13.8 mph - N/A   Clear